Wetbulb
26.32 25.84 26.13 26.33 26.76 26.85 26.02 25.72 23.38 19.75 23.09 26.09 26.01 27.07 24.64 26.20 29.79 30.06 31.87 36.70 35.90 37.05 36.29 36.69 37.71 38.41 38.91 39.79 40.71 41.68 42.88 43.69 44.88 45.69 46.80 48.35 51.09 53.89
25.63 24.41 23.66 24.43 24.63 24.75 24.72 24.17 24.43 23.21 21.11 26.48 24.67 23.77 23.34 24.44 27.13 27.02 29.91 36.52 35.12 35.32 36.70 36.15 35.30 36.11 36.44 37.37 38.09 39.19 40.46 41.37 41.96 43.08 43.89 44.84 47.24 50.07
24.30 23.76 22.54 22.95 22.50 22.67 23.24 22.74 22.87 23.54 22.15 24.59 23.74 23.10 21.63 20.77 22.30 24.45 28.44 31.63 33.75 32.80 35.14 35.81 34.21 34.12 34.61 34.90 35.64 36.58 38.07 39.12 39.81 40.22 41.16 42.30 44.22 46.11
23.62 22.81 22.28 23.41 21.36 21.40 21.07 20.94 21.11 22.53 21.84 20.23 21.45 20.32 20.22 20.97 21.18 22.31 25.45 28.16 30.19 29.60 33.52 32.88 34.16 33.02 33.43 33.51 33.80 34.64 35.71 36.69 37.84 38.45 38.71 39.36 40.71 42.58
20.60 20.07 19.32 19.46 18.09 14.47 18.04 18.70 19.82 21.89 20.80 18.97 17.90 19.94 20.16 20.92 19.83 21.72 22.90 23.63 27.29 27.14 29.03 30.97 32.28 31.87 31.76 32.36 32.71 33.12 34.16 34.81 36.13 36.61 36.58 36.39 37.42 38.91
24.71 23.88 23.65 21.26 17.23 15.78 16.00 11.39 15.55 18.37 19.17 17.42 17.80 18.13 19.12 19.99 19.03 18.04 17.98 20.39 21.87 21.84 23.33 28.12 29.04 30.64 30.89 30.84 31.63 31.80 32.59 33.37 34.74 35.00 35.55 35.25 35.39 36.36
24.92 24.75 25.27 26.20 27.08 23.08 19.48 12.94 13.39 12.84 16.38 16.91 16.97 17.62 17.46 16.91 14.38 14.48 16.41 17.28 21.01 17.49 16.64 21.19 22.14 24.29 26.22 27.72 30.04 30.66 31.06 31.98 32.78 34.22 34.17 34.53 34.37 34.93
13.76 11.35 18.28 21.85 25.27 27.27 26.72 24.61 17.58 8.73 9.96 13.19 7.73 7.33 10.93 4.83 15.70 14.17 13.10 13.82 13.52 17.93 12.84 13.63 19.78 21.14 23.87 25.03 28.48 29.24 29.60 30.32 31.39 32.49 33.09 32.89 33.72 33.45
11.75 8.27 11.96 16.04 18.03 16.18 22.34 23.02 22.27 24.30 20.42 10.02 10.09 7.08 6.56 4.94 1.02 10.55 10.31 6.78 8.01 9.45 13.29 9.39 15.39 15.51 19.85 23.51 26.31 27.64 27.86 28.56 29.63 30.62 32.16 31.72 31.73 31.52
20.39 19.91 19.72 20.08 20.00 20.40 18.91 17.33 14.41 11.07 16.62 18.56 9.10 9.69 7.31 10.42 3.77 5.78 6.15 10.54 7.96 8.51 5.76 2.08 4.14 10.43 15.27 14.04 24.35 25.49 25.78 26.58 27.71 28.72 30.22 31.45 30.65 30.21
20.94 20.82 20.60 20.45 22.87 23.17 20.22 19.49 18.37 15.85 23.44 24.98 23.95 23.49 23.47 23.20 21.37 13.92 11.23 4.60 1.94 0.12 3.10 -1.23 5.22 4.17 4.19 7.55 16.78 23.20 23.39 24.76 25.64 26.70 28.16 29.41 30.10 28.85
21.57 22.30 22.36 21.62 22.64 22.38 19.05 18.18 12.04 6.89 5.89 10.14 11.16 14.79 14.72 14.66 19.30 10.08 11.74 12.25 2.10 2.97 8.18 3.45 2.21 0.46 5.55 5.11 10.83 16.07 16.95 22.34 22.98 24.33 25.76 27.55 28.71 25.34
18.25 17.35 19.48 22.68 22.73 22.74 21.19 14.15 12.20 5.71 5.61 5.06 6.04 7.09 5.74 9.34 11.53 11.82 5.78 9.53 6.05 0.18 8.66 3.40 -2.47 1.52 -2.79 2.33 7.16 15.19 16.15 15.93 17.06 18.61 23.04 24.85 26.31 26.99
16.20 13.96 13.08 22.43 22.18 22.12 17.55 21.89 20.80 8.25 6.62 4.79 3.55 3.39 1.11 3.02 5.64 8.66 9.20 8.09 4.51 6.26 9.86 9.53 3.83 2.09 -2.25 0.72 3.69 14.63 15.92 15.57 16.98 16.66 18.05 21.72 23.66 25.16
17.05 16.53 21.14 22.17 22.58 18.54 22.09 20.62 9.05 1.99 -1.79 -1.71 -4.63 -3.98 -3.72 1.17 3.89 7.71 11.60 11.39 10.20 8.61 12.28 6.76 7.43 4.96 -0.18 -0.57 1.31 8.90 10.78 13.63 16.63 16.40 17.75 17.98 18.16 20.52
19.12 17.70 14.14 15.95 9.69 7.37 11.28 9.85 4.14 0.35 0.25 -3.03 -4.16 -5.90 -0.73 3.04 1.55 -1.12 0.97 5.19 2.57 6.73 13.18 12.85 13.70 7.31 3.33 4.10 3.96 5.24 13.48 9.25 14.63 16.03 17.83 17.48 18.52 20.36
12.15 12.15 9.40 7.90 6.56 4.50 4.04 2.58 0.95 4.71 3.47 -3.04 -2.52 -0.20 2.13 3.74 4.54 5.06 6.62 5.33 1.73 4.40 8.34 11.83 15.13 15.31 13.46 7.46 4.03 12.01 11.69 11.91 14.69 15.12 17.24 15.07 17.12 19.55
12.47 8.31 1.97 0.69 5.21 0.89 1.26 1.88 2.25 4.93 5.67 7.81 4.23 7.49 7.91 8.61 9.98 11.76 11.33 6.95 5.21 7.88 8.01 9.90 10.95 11.06 12.66 13.60 17.71 12.96 11.20 11.58 13.75 14.91 16.78 14.28 13.44 17.43
9.29 4.49 1.74 0.87 1.88 7.87 9.08 8.00 4.63 5.98 9.83 9.54 7.42 7.25 10.91 12.37 11.01 10.69 10.14 9.53 8.41 8.46 8.77 10.04 9.35 8.43 5.43 0.78 8.99 17.99 10.90 11.07 11.88 11.81 13.88 14.61 12.40 15.29
13.05 9.67 7.19 7.27 11.28 11.57 11.18 10.05 7.98 6.09 7.22 10.48 5.86 2.58 0.64 9.86 8.00 8.46 8.45 3.94 6.45 7.18 7.36 8.58 7.90 7.94 6.30 2.91 -1.63 6.61 16.77 10.32 10.34 10.61 11.38 14.63 15.15 19.22
12.75 12.95 9.45 10.59 10.69 10.51 3.19 -0.51 -4.14 -2.86 -3.39 -4.42 -1.08 -0.89 -8.77 2.82 1.87 3.99 3.74 0.57 3.23 5.98 4.60 5.23 7.82 11.02 11.98 10.72 -0.35 2.47 9.73 15.22 14.48 12.11 12.63 10.29 9.54 11.28
10.05 11.10 10.12 9.66 8.27 6.96 -3.45 -7.71 -4.60 -3.73 -3.59 -1.52 -9.14 -10.77 -10.40 0.00 0.32 0.88 -0.81 0.70 5.29 4.43 5.14 6.96 9.12 9.20 8.20 6.35 3.31 2.84 5.54 7.41 12.59 14.79 15.27 14.51 9.62 6.56
9.19 11.14 8.75 6.98 5.99 2.92 6.31 1.44 2.00 -6.77 -1.48 -3.02 -1.80 -1.74 -10.58 -1.66 2.99 1.56 0.97 4.16 4.91 4.25 4.61 3.92 5.53 6.44 5.71 5.48 3.54 4.23 3.17 3.40 5.84 6.24 7.39 13.91 14.71 15.24
MSLP
1025.24 1025.23 1025.40 1025.57 1025.59 1025.40 1025.23 1025.18 1025.19 1024.95 1024.22 1023.56 1023.45 1023.34 1023.11 1022.34 1021.74 1021.26 1020.77 1019.88 1019.54 1018.98 1018.53 1017.88 1017.02 1016.24 1015.50 1014.62 1013.71 1012.69 1011.59 1010.77 1009.95 1008.91 1008.11 1007.21 1006.26 1005.25
1025.71 1025.71 1025.79 1025.95 1026.08 1025.87 1025.69 1025.69 1025.60 1025.45 1025.07 1024.29 1024.36 1024.18 1023.69 1023.01 1022.29 1021.83 1021.20 1020.35 1019.93 1019.38 1018.71 1018.15 1017.65 1016.94 1016.08 1015.14 1014.21 1013.13 1012.00 1011.33 1010.62 1009.61 1008.76 1007.87 1006.85 1005.99
1025.96 1026.15 1026.24 1026.56 1026.62 1026.32 1026.02 1026.17 1026.00 1025.87 1025.59 1024.91 1024.73 1024.58 1024.08 1023.62 1022.85 1022.27 1021.60 1020.84 1020.26 1019.71 1018.91 1018.38 1017.95 1017.27 1016.44 1015.55 1014.61 1013.63 1012.55 1011.59 1010.78 1010.16 1009.32 1008.43 1007.46 1006.74
1026.13 1026.35 1026.67 1027.03 1027.04 1026.69 1026.45 1026.49 1026.61 1026.38 1026.14 1025.76 1025.37 1025.15 1024.79 1024.27 1023.75 1022.94 1022.20 1021.52 1020.77 1020.16 1019.37 1018.96 1018.22 1017.68 1016.90 1016.09 1015.25 1014.45 1013.49 1012.35 1011.30 1010.53 1010.01 1009.25 1008.24 1007.27
1026.30 1026.37 1027.05 1027.27 1027.35 1027.29 1026.90 1026.80 1026.98 1026.81 1026.67 1026.44 1026.15 1025.89 1025.46 1024.95 1024.20 1023.44 1022.64 1022.26 1021.40 1020.84 1020.07 1019.35 1018.73 1018.14 1017.47 1016.66 1015.89 1015.02 1014.18 1013.23 1012.13 1011.10 1010.29 1009.63 1008.92 1007.93
1026.65 1026.54 1026.90 1027.18 1027.30 1027.47 1027.21 1027.08 1027.37 1027.25 1027.10 1026.94 1026.72 1026.47 1026.02 1025.51 1025.06 1024.23 1023.01 1022.71 1022.25 1021.69 1020.90 1019.97 1019.40 1018.71 1018.05 1017.34 1016.49 1015.77 1014.93 1013.95 1012.72 1011.69 1010.97 1010.15 1009.25 1008.27
1026.99 1026.90 1026.87 1026.70 1026.65 1027.10 1027.16 1027.26 1027.45 1027.84 1027.70 1027.61 1027.45 1027.19 1026.84 1026.28 1025.89 1025.42 1024.53 1023.28 1022.76 1022.58 1021.87 1020.89 1020.26 1019.66 1018.93 1018.11 1016.99 1016.28 1015.44 1014.60 1013.71 1012.66 1011.62 1010.80 1009.97 1009.05
1027.40 1027.69 1027.79 1027.34 1026.84 1026.64 1026.68 1026.82 1027.58 1027.69 1028.07 1028.14 1028.11 1028.24 1027.66 1027.26 1026.51 1025.94 1025.11 1024.31 1023.86 1023.29 1022.89 1021.91 1021.04 1020.23 1019.50 1018.76 1017.80 1016.75 1015.92 1015.11 1014.32 1013.36 1012.32 1011.51 1010.77 1009.68
1027.45 1027.77 1028.04 1027.92 1027.67 1027.94 1027.42 1027.06 1027.21 1027.20 1027.72 1028.04 1028.31 1028.23 1027.83 1027.47 1027.14 1026.24 1025.64 1025.35 1025.05 1024.19 1023.38 1022.70 1021.64 1020.89 1020.21 1019.56 1018.49 1017.68 1016.79 1015.80 1014.91 1014.05 1013.02 1012.01 1011.32 1010.73
1027.42 1027.64 1027.87 1027.98 1027.67 1027.78 1028.10 1027.68 1027.89 1028.18 1027.64 1027.60 1028.23 1028.00 1027.79 1027.13 1027.18 1026.80 1026.02 1025.44 1024.84 1024.53 1024.18 1023.86 1022.23 1021.66 1020.63 1020.10 1019.16 1018.38 1017.68 1016.82 1015.85 1014.84 1013.82 1012.86 1011.89 1011.13
1027.33 1027.57 1027.66 1027.71 1027.55 1027.45 1027.99 1027.85 1028.14 1028.20 1027.58 1027.26 1027.18 1027.01 1026.76 1026.33 1026.11 1026.21 1026.19 1025.88 1025.64 1025.33 1024.46 1024.49 1023.25 1022.37 1021.30 1020.75 1019.89 1019.08 1018.38 1017.48 1016.76 1015.86 1014.74 1013.66 1012.63 1011.98
1027.39 1027.46 1027.62 1027.67 1027.65 1027.69 1028.06 1028.12 1028.44 1029.07 1028.75 1028.38 1028.30 1027.76 1027.48 1027.03 1026.46 1026.64 1026.26 1025.95 1026.13 1025.86 1024.63 1024.72 1024.44 1023.60 1022.66 1021.30 1020.56 1019.78 1019.14 1018.22 1017.45 1016.65 1015.75 1014.70 1013.77 1013.13
1027.49 1027.78 1027.91 1027.60 1027.66 1027.68 1027.94 1028.18 1028.33 1029.34 1029.31 1029.03 1028.91 1028.81 1028.31 1027.66 1027.07 1026.44 1026.25 1025.87 1025.84 1025.81 1024.96 1024.65 1025.14 1024.53 1024.17 1023.19 1021.45 1020.34 1019.74 1019.01 1018.28 1017.46 1016.53 1015.62 1014.77 1013.86
1027.47 1027.90 1028.19 1027.60 1027.75 1027.80 1028.26 1027.90 1028.23 1029.17 1029.50 1029.49 1029.65 1029.60 1029.07 1028.47 1027.68 1026.84 1026.09 1025.77 1025.83 1025.86 1025.26 1024.85 1024.93 1024.83 1024.64 1024.04 1022.90 1021.07 1020.11 1019.49 1018.83 1018.09 1017.32 1016.40 1015.54 1014.76
1027.26 1027.63 1027.48 1027.55 1027.58 1028.24 1027.89 1028.29 1029.25 1029.74 1029.87 1030.49 1030.57 1030.31 1029.65 1029.05 1027.93 1027.10 1026.29 1025.95 1025.90 1025.76 1025.22 1025.03 1024.98 1024.56 1024.47 1024.21 1023.71 1022.29 1021.01 1020.08 1019.31 1018.61 1017.72 1017.02 1016.38 1015.53
1026.80 1027.23 1027.82 1028.07 1028.56 1028.96 1028.98 1029.28 1029.70 1030.09 1030.01 1030.44 1030.45 1029.87 1029.53 1028.59 1028.47 1028.45 1027.54 1027.17 1026.89 1026.36 1025.51 1025.01 1024.58 1024.70 1024.62 1023.96 1023.72 1022.87 1021.96 1021.48 1020.19 1019.19 1018.33 1017.56 1016.64 1015.97
1027.39 1027.68 1028.11 1028.44 1028.90 1029.11 1029.39 1029.76 1030.10 1029.89 1030.04 1030.14 1030.09 1029.96 1029.57 1029.02 1028.70 1028.39 1027.99 1027.77 1027.76 1027.16 1026.51 1025.59 1024.77 1024.34 1023.95 1023.83 1023.67 1023.13 1022.54 1021.74 1020.81 1019.87 1018.83 1018.16 1017.31 1016.55
1026.97 1027.72 1028.22 1028.69 1029.12 1029.46 1029.81 1030.13 1029.98 1029.90 1029.95 1029.99 1029.99 1029.92 1029.71 1029.26 1028.88 1028.58 1028.33 1028.26 1028.03 1027.52 1026.94 1026.23 1025.57 1024.84 1024.18 1023.82 1023.38 1023.26 1022.96 1022.35 1021.43 1020.55 1019.67 1018.89 1017.98 1017.11
1026.78 1027.37 1027.93 1028.47 1028.90 1029.17 1029.42 1029.69 1030.07 1029.73 1029.44 1029.83 1030.03 1030.01 1029.68 1029.27 1029.06 1028.92 1028.72 1028.62 1028.39 1027.91 1027.37 1026.79 1026.25 1025.72 1025.16 1024.87 1024.30 1023.70 1023.40 1022.79 1022.03 1021.20 1020.31 1019.55 1018.82 1017.78
1026.45 1026.99 1027.59 1028.07 1028.38 1028.82 1029.25 1029.55 1029.74 1029.77 1029.77 1029.99 1030.26 1030.28 1029.90 1029.62 1029.57 1029.45 1029.35 1029.18 1028.85 1028.35 1027.82 1027.34 1026.95 1026.51 1025.95 1025.60 1025.46 1024.87 1023.95 1023.39 1022.66 1021.82 1020.94 1019.98 1019.38 1018.13
1026.27 1026.72 1027.12 1027.56 1028.08 1028.59 1029.03 1029.37 1029.63 1029.89 1030.07 1030.30 1030.50 1030.43 1030.20 1030.00 1030.19 1029.88 1029.74 1029.64 1029.35 1028.84 1028.37 1027.93 1027.57 1027.04 1026.21 1025.77 1026.00 1025.36 1024.61 1023.94 1023.22 1022.34 1021.59 1020.60 1019.76 1018.70
1026.05 1026.52 1026.95 1027.31 1027.83 1028.36 1028.85 1029.26 1029.65 1029.94 1030.23 1030.52 1030.72 1030.63 1030.42 1030.20 1030.32 1030.24 1030.11 1029.96 1029.59 1029.27 1028.91 1028.50 1027.85 1027.29 1026.80 1026.55 1026.47 1025.93 1025.29 1024.62 1023.71 1022.97 1022.36 1021.63 1020.85 1019.81
1025.71 1026.21 1026.77 1027.19 1027.68 1028.17 1028.69 1029.17 1029.51 1029.87 1030.25 1030.61 1030.70 1030.60 1030.49 1030.46 1030.46 1030.37 1030.20 1029.99 1029.84 1029.63 1029.29 1029.00 1028.54 1028.12 1027.69 1027.34 1027.07 1026.64 1026.08 1025.35 1024.42 1023.50 1022.90 1022.22 1021.59 1020.94
Wind_Speed
5 6 4 4 4 4 4 3 1 2 2 3 5 9 8 8 13 11 10 15 21 16 19 23 25 25 25 26 27 27 27 26 25 24 23 23 22 21
5 7 6 4 4 5 4 4 3 1 2 2 4 6 9 10 13 12 12 15 18 22 18 18 23 23 25 26 27 28 28 27 27 27 27 24 23 21
7 7 8 6 4 5 5 4 4 3 2 3 4 7 8 12 12 11 11 8 7 22 20 19 21 24 24 27 27 28 29 29 28 27 28 28 26 23
8 8 7 6 6 6 5 6 5 5 3 5 3 6 7 12 11 11 9 9 8 19 18 21 19 22 24 26 27 27 28 29 29 28 28 29 28 27
6 6 4 3 4 3 6 6 5 6 5 4 5 5 5 9 10 9 9 8 7 21 16 19 19 20 25 24 26 28 28 29 28 28 27 28 29 28
6 5 5 4 5 2 4 5 5 5 5 4 4 5 7 9 6 8 9 7 5 11 14 14 17 19 22 25 25 27 27 28 29 29 27 26 27 29
5 5 4 6 8 8 4 2 4 2 3 3 3 4 6 7 9 5 6 9 0 10 8 5 8 6 9 16 20 27 27 27 28 29 28 27 26 28
6 3 3 8 6 9 11 10 6 3 2 2 2 1 4 3 5 5 4 4 4 6 6 4 8 7 6 9 26 26 27 27 28 28 28 27 26 26
6 3 3 3 8 5 8 11 10 9 3 3 0 3 2 3 3 6 4 2 2 4 6 4 6 6 6 9 27 26 27 26 27 28 29 28 26 24
6 5 4 4 5 4 3 6 5 4 4 2 4 4 5 4 2 4 3 5 2 4 2 2 4 4 4 3 25 26 26 26 26 26 28 27 27 25
7 5 5 4 8 10 5 7 5 5 8 11 11 11 12 13 11 3 4 4 3 3 4 2 4 4 3 4 8 25 25 27 24 26 26 27 27 24
5 6 9 5 9 8 3 4 5 2 3 5 5 6 8 8 11 0 4 2 1 4 5 4 5 3 5 4 5 8 10 22 24 26 25 26 27 10
5 3 2 9 9 7 6 4 3 2 3 3 3 4 4 5 5 5 2 1 1 1 5 3 2 4 1 5 4 8 9 8 9 12 22 24 25 20
6 3 3 9 7 5 3 9 9 4 3 4 3 3 3 4 5 5 6 4 1 3 6 3 1 1 1 4 4 7 9 6 9 10 10 15 19 21
5 8 10 8 6 3 6 9 5 3 3 3 2 3 3 4 4 5 7 6 4 3 3 2 0 2 1 2 4 5 7 5 10 10 10 9 8 9
8 5 3 3 3 1 3 4 3 2 3 2 1 3 3 4 4 2 3 4 3 5 7 6 7 3 3 2 1 4 7 5 9 10 9 8 9 9
5 3 2 2 2 2 2 3 2 3 4 1 2 3 3 3 3 3 3 3 2 3 6 6 10 8 4 2 3 5 7 7 9 10 8 9 8 9
3 3 2 2 4 3 3 2 1 2 1 2 2 1 2 2 2 3 3 2 2 4 5 6 7 7 6 5 14 8 7 8 8 10 9 9 9 9
3 2 3 4 3 3 4 3 3 1 1 2 2 2 2 3 3 4 4 4 4 5 5 6 7 7 7 4 4 17 9 8 9 9 9 9 8 8
2 4 4 4 5 5 4 3 2 2 2 2 2 1 2 2 2 2 3 2 4 5 5 6 7 8 6 4 3 4 20 9 8 9 8 6 9 14
3 5 4 4 5 4 3 3 3 2 2 2 1 1 2 1 2 2 2 3 3 5 6 7 7 11 6 4 5 5 7 19 16 10 10 8 9 7
4 5 4 4 5 4 3 3 3 3 3 2 1 1 1 1 2 1 2 1 2 3 5 5 8 7 6 7 8 7 7 8 14 18 18 19 11 7
5 6 5 5 4 4 4 4 3 2 3 3 2 2 2 2 1 1 1 1 2 2 4 5 5 5 7 7 7 6 11 9 9 10 9 21 20 19
Wind_Direction
61 57 55 38 30 28 33 30 59 347 298 346 358 13 355 353 355 358 349 6 14 5 15 16 13 14 13 14 13 13 13 12 9 6 1 353 346 338
66 65 50 35 29 33 36 25 21 21 302 345 9 355 357 353 354 353 343 355 6 5 6 15 15 13 13 13 13 12 12 13 13 11 8 2 356 346
76 71 63 42 38 34 42 31 22 8 316 322 30 351 356 355 349 347 345 1 348 358 6 7 18 15 15 14 13 13 11 11 13 14 12 8 4 358
94 83 70 69 48 37 44 44 21 27 357 351 328 353 359 352 340 340 345 355 354 360 3 7 22 16 16 15 14 14 13 10 10 13 16 14 11 7
107 100 102 87 70 16 54 52 32 33 22 17 357 356 345 351 343 344 350 349 354 4 355 10 10 18 17 16 14 14 12 10 10 12 14 14 14 13
105 98 118 135 134 138 79 70 43 34 16 13 10 356 351 349 348 344 347 351 360 5 349 0 5 10 16 13 15 14 12 11 9 12 12 12 13 15
87 84 94 86 111 152 130 123 89 43 0 2 6 2 360 357 359 326 331 324 268 18 339 337 353 343 5 6 12 13 12 12 10 9 12 12 13 14
102 50 19 60 87 110 92 113 126 122 354 355 304 310 310 281 334 338 330 356 347 8 338 303 356 341 354 3 12 12 11 10 9 7 10 13 12 13
121 105 50 31 73 59 73 71 49 36 167 175 209 240 292 263 292 330 341 340 269 282 351 303 350 334 341 360 14 10 10 7 8 6 6 12 13 14
134 122 95 56 102 96 85 61 30 4 336 192 192 259 228 257 206 208 245 288 296 296 336 334 317 318 312 323 10 10 7 9 8 7 3 8 11 10
121 118 104 87 89 89 78 71 49 22 23 49 44 34 19 9 22 345 335 7 330 298 333 105 311 302 322 322 355 3 2 6 6 7 5 6 11 6
124 121 121 113 105 95 75 82 64 317 13 11 0 353 359 350 7 18 313 331 327 353 324 29 334 10 340 311 333 352 348 358 360 2 5 5 7 4
142 140 145 124 111 93 86 117 123 158 18 54 7 349 341 341 339 344 355 112 58 272 297 56 335 331 47 301 308 344 346 338 353 351 354 357 6 10
159 172 175 145 129 101 80 84 82 79 55 36 29 339 327 332 323 337 342 5 173 178 298 357 307 65 344 314 338 337 346 329 354 347 346 349 354 359
145 168 168 152 147 66 100 99 80 68 78 57 1 307 259 272 309 354 357 4 26 342 334 352 62 303 102 293 297 331 340 330 353 346 343 346 342 348
154 138 116 128 118 125 74 71 80 89 122 139 268 274 303 3 359 339 15 347 25 335 325 351 355 35 332 305 358 310 349 336 336 344 342 343 346 349
113 87 79 61 73 58 64 66 38 54 76 44 41 360 339 352 340 342 9 345 34 327 352 348 356 351 322 200 1 347 351 346 345 344 345 348 347 353
99 131 129 140 149 161 129 106 68 82 107 115 49 344 336 347 353 13 14 360 354 354 0 355 358 355 1 342 18 6 3 349 347 346 354 348 345 344
134 158 153 160 172 149 141 143 156 188 161 95 79 356 342 20 20 24 19 15 7 2 3 5 3 2 358 352 307 6 5 351 349 348 349 346 344 338
147 154 163 160 148 147 150 152 126 86 64 77 76 29 360 34 28 25 26 357 13 3 3 7 4 354 345 336 306 298 5 356 352 345 343 333 340 343
160 154 151 147 146 145 148 135 144 147 142 123 96 71 2 70 44 26 29 34 34 13 7 2 350 342 338 4 7 333 355 355 359 359 347 352 351 345
155 148 148 143 146 152 148 145 138 126 125 131 122 120 329 97 102 94 65 34 19 19 6 354 353 352 356 9 349 336 351 342 349 0 6 9 358 349
156 149 149 145 147 153 146 148 129 128 128 133 135 103 98 62 59 108 86 55 19 17 4 5 360 356 354 359 346 356 349 347 346 347 352 358 1 359